Date String (YYYY-MM-DD hh:mm:ss) UTC,Instrument flags,Ambient pressure (hPa),Sample flow (lpm),Bypass flow (lpm),Sample temperature (°C),Ambient temperature (°C),ASC tube jacket temperature (°C),LED temperature (°C),Box temperature (°C),Sample RH (%),Span deviation,Mass concentration (μg/m³),Mass concentration (μg/m³),Mass concentration (μg/m³)
DateTimeUTC,F1_M11,P_M11,Q1_M11,Q2_M11,T1_M11,T2_M11,T3_M11,T4_M11,T5_M11,U1_M11,ZSPAN_M11,X0_M11,X2_M11,X1_M11
2022-06-17 10:00:00,,0828.9,5.01,0.00,29.8,27.4,00.0,38.6,31.4,34.4,0001.5,0018.46,0007.92,0005.15
2022-06-17 10:01:00,,0828.9,5.00,0.00,29.8,27.5,00.0,38.6,31.3,34.5,0002.0,0018.34,0007.88,0005.15
2022-06-17 10:02:00,,0828.9,5.00,0.00,29.7,27.6,00.0,38.6,31.4,34.5,0001.8,0017.87,0007.82,0005.13
2022-06-17 10:03:00,,0828.8,5.00,0.00,29.7,27.8,00.0,38.6,31.4,34.5,0001.8,0016.94,0007.74,0005.12
2022-06-17 10:04:00,,0828.9,5.00,0.00,29.7,27.9,00.0,38.6,31.4,34.5,0001.5,0016.53,0007.72,0005.09
2022-06-17 10:05:00,,0829.0,4.99,0.00,29.7,28.0,00.0,38.6,31.4,34.6,0001.6,0016.36,0007.71,0005.07
2022-06-17 10:06:00,,0828.9,4.99,0.00,29.7,28.2,00.0,38.6,31.5,34.6,0001.2,0016.14,0007.68,0005.06
2022-06-17 10:07:00,,0828.9,5.00,0.00,29.7,28.3,00.0,38.6,31.5,34.6,0000.9,0016.21,0007.69,0005.06
2022-06-17 10:08:00,,0828.9,5.00,0.00,29.7,28.4,00.0,38.6,31.5,34.6,0000.7,0015.76,0007.75,0005.04
2022-06-17 10:09:00,,0828.8,5.00,0.00,29.8,28.4,00.0,38.6,31.6,34.6,0001.2,0015.63,0007.72,0005.03
2022-06-17 10:10:00,,0828.8,5.00,0.00,29.8,28.5,00.0,38.6,31.6,34.6,0000.6,0015.99,0007.62,0005.01
2022-06-17 10:11:00,,0828.8,5.00,0.00,29.8,28.6,00.0,38.6,31.6,34.6,0000.2,0016.08,0007.60,0004.99
2022-06-17 10:12:00,,0828.8,4.99,0.00,29.8,28.6,00.0,38.6,31.7,34.6,0000.3,0015.87,0007.60,0004.99
2022-06-17 10:13:00,,0829.1,4.99,0.00,29.8,28.7,00.0,38.6,31.7,34.5,0000.0,0016.13,0007.68,0005.02
2022-06-17 10:14:00,,0829.1,5.00,0.00,29.8,28.7,00.0,38.6,31.7,34.4,0000.0,0015.97,0007.61,0005.03
2022-06-17 10:15:00,,0828.8,5.01,0.00,29.9,28.8,00.0,38.6,31.7,34.4,0000.2,0015.90,0007.62,0005.05
2022-06-17 10:16:00,,0828.8,4.99,0.00,29.9,28.8,00.0,38.6,31.7,34.4,0000.0,0015.92,0007.67,0005.07
2022-06-17 10:17:00,,0828.8,5.00,0.00,29.9,28.8,00.0,38.6,31.7,34.3,0001.7,0016.23,0007.76,0005.09
2022-06-17 10:18:00,,0828.9,5.01,0.00,29.9,28.1,00.0,38.6,31.6,34.3,0000.3,0016.57,0007.86,0005.11
2022-06-17 10:19:00,,0828.9,4.99,0.00,29.8,27.6,00.0,38.5,31.4,34.4,-000.1,0016.96,0007.91,0005.13
2022-06-17 10:20:00,,0828.9,5.01,0.00,29.7,27.4,00.0,38.5,31.3,34.6,-000.0,0017.32,0007.94,0005.14
2022-06-17 10:21:00,,0828.9,5.00,0.00,29.6,27.4,00.0,38.5,31.3,34.7,0000.0,0016.97,0007.96,0005.13
2022-06-17 10:22:00,,0828.9,5.00,0.00,29.6,27.5,00.0,38.5,31.3,34.8,0000.0,0016.90,0008.01,0005.12
2022-06-17 10:23:00,,0828.9,5.01,0.00,29.6,27.6,00.0,38.5,31.3,34.8,0000.0,0017.22,0008.08,0005.09
2022-06-17 10:24:00,,0828.9,5.00,0.00,29.6,27.8,00.0,38.5,31.3,34.7,0000.7,0017.07,0008.05,0005.09
2022-06-17 10:25:00,,0828.9,4.99,0.00,29.6,27.9,00.0,38.5,31.4,34.7,0000.7,0017.44,0008.08,0005.08
2022-06-17 10:26:00,,0828.9,5.00,0.00,29.6,28.0,00.0,38.5,31.4,34.7,0001.1,0017.55,0008.04,0005.07
2022-06-17 10:27:00,,0828.8,5.00,0.00,29.6,28.1,00.0,38.5,31.4,34.7,0000.4,0017.69,0008.00,0005.06
2022-06-17 10:28:00,,0828.8,5.00,0.00,29.6,28.2,00.0,38.5,31.4,34.8,0000.0,0017.23,0007.83,0005.04
2022-06-17 10:29:00,,0829.0,5.00,0.00,29.6,28.3,00.0,38.5,31.5,34.8,0000.0,0016.65,0007.63,0005.01
2022-06-17 10:30:00,,0829.0,4.99,0.00,29.6,28.4,00.0,38.5,31.5,34.8,0000.0,0017.07,0007.61,0005.00
2022-06-17 10:31:00,,0829.0,5.01,0.00,29.6,28.5,00.0,38.5,31.5,34.8,0000.0,0016.89,0007.61,0005.00
2022-06-17 10:32:00,,0829.3,5.00,0.00,29.7,28.5,00.0,38.5,31.6,34.8,0000.0,0016.76,0007.63,0005.02
2022-06-17 10:33:00,,0829.3,4.99,0.00,29.7,28.6,00.0,38.5,31.6,34.7,0000.0,0017.03,0007.72,0005.04
2022-06-17 10:34:00,,0829.0,5.00,0.00,29.7,28.7,00.0,38.5,31.6,34.6,0000.0,0016.72,0007.68,0005.10
2022-06-17 10:35:00,,0828.8,5.00,0.00,29.7,28.7,00.0,38.5,31.7,34.5,0000.0,0017.38,0007.76,0005.12
2022-06-17 10:36:00,,0828.7,5.01,0.00,29.7,28.7,00.0,38.5,31.7,34.4,-000.0,0017.71,0007.80,0005.16
2022-06-17 10:37:00,,0828.7,5.00,0.00,29.8,28.8,00.0,38.5,31.7,34.3,-000.7,0017.71,0007.86,0005.20
2022-06-17 10:38:00,,0828.7,4.99,0.00,29.8,28.8,00.0,38.6,31.7,34.3,-001.4,0017.63,0007.92,0005.23
2022-06-17 10:39:00,,0828.8,5.01,0.00,29.8,28.7,00.0,38.6,31.7,34.4,-001.4,0018.03,0008.02,0005.25
2022-06-17 10:40:00,,0829.1,5.01,0.00,29.8,28.0,00.0,38.5,31.6,34.4,-001.2,0018.61,0008.19,0005.29
2022-06-17 10:41:00,,0829.2,5.00,0.00,29.7,27.5,00.0,38.5,31.4,34.6,-001.4,0018.02,0008.20,0005.32
2022-06-17 10:42:00,,0828.8,4.99,0.00,29.6,27.3,00.0,38.4,31.3,34.7,-000.9,0017.45,0008.19,0005.35
2022-06-17 10:43:00,,0828.7,5.01,0.00,29.6,27.4,00.0,38.4,31.3,34.8,-001.3,0017.47,0008.18,0005.37
2022-06-17 10:44:00,,0828.6,5.00,0.00,29.5,27.5,00.0,38.4,31.3,34.8,-001.0,0017.20,0008.12,0005.41
2022-06-17 10:45:00,,0828.6,4.99,0.00,29.5,27.6,00.0,38.4,31.3,34.9,-001.4,0017.45,0008.18,0005.42
2022-06-17 10:46:00,,0828.9,5.01,0.00,29.5,27.8,00.0,38.4,31.3,34.9,-001.4,0017.26,0008.16,0005.43
2022-06-17 10:47:00,,0828.9,4.99,0.00,29.5,27.9,00.0,38.4,31.3,34.9,-001.0,0017.10,0008.22,0005.42
2022-06-17 10:48:00,,0828.7,4.99,0.00,29.5,28.0,00.0,38.4,31.4,34.8,0000.0,0017.42,0008.26,0005.44
2022-06-17 10:49:00,,0829.0,5.01,0.00,29.5,28.1,00.0,38.4,31.4,34.7,0000.0,0017.81,0008.25,0005.44
2022-06-17 10:50:00,,0829.1,4.99,0.00,29.5,28.2,00.0,38.4,31.4,34.7,0000.0,0017.56,0008.18,0005.44
2022-06-17 10:51:00,,0828.9,5.00,0.00,29.5,28.3,00.0,38.4,31.4,34.6,0000.0,0017.47,0008.22,0005.44
2022-06-17 10:52:00,,0828.9,5.00,0.00,29.6,28.4,00.0,38.4,31.5,34.6,0000.0,0017.51,0008.22,0005.45
2022-06-17 10:53:00,,0828.9,5.00,0.00,29.6,28.5,00.0,38.4,31.5,34.6,0000.0,0018.00,0008.18,0005.45
2022-06-17 10:54:00,,0828.6,4.99,0.00,29.6,28.5,00.0,38.4,31.5,34.6,0000.0,0017.80,0008.17,0005.46
2022-06-17 10:55:00,,0828.6,5.00,0.00,29.6,28.6,00.0,38.5,31.6,34.6,0000.0,0018.08,0008.17,0005.44
2022-06-17 10:56:00,,0828.8,4.99,0.00,29.6,28.7,00.0,38.5,31.6,34.6,0000.0,0018.57,0008.13,0005.43
2022-06-17 10:57:00,,0829.1,5.01,0.00,29.7,28.7,00.0,38.5,31.6,34.7,0000.0,0018.43,0008.11,0005.43
2022-06-17 10:58:00,,0829.0,5.00,0.00,29.7,28.7,00.0,38.5,31.7,34.8,0000.0,0018.43,0008.09,0005.44
2022-06-17 10:59:00,,0829.1,4.98,0.00,29.7,28.8,00.0,38.5,31.7,34.8,0000.0,0018.47,0008.08,0005.43
